Home   Weather   Bismarck   Past weeks

Flag for USA Past Weather in Bismarck, North Dakota, USA — Yesterday and Last 2 Weeks

Now
73 °F

Passing clouds.


Feels Like: 76 °F
Forecast: 45 / 70 °F
Wind: 23 mph from Northwest

Location: Bismarck Municipal Airport

Current Time: May 28, 2017 at 5:32:24 pm

Latest Report: May 28, 2017 at 4:52 pm


Visibility: 10 mi

Pressure: 29.86 "Hg (28.14 "Hg at 513m altitude)

Humidity: 24%

Dew Point: 34 °F

Location of BismarckLocation

Past Weather in Bismarck — Graph

°F

Bismarck Temperature Yesterday

Maximum temperature yesterday: 76 °F (at 1:52 pm)
Minimum temperature yesterday: 45 °F (at 3:52 am)
Average temperature yesterday: 61 °F

High & Low Weather Summary for the Past Weeks

 TemperatureHumidityPressure
High86 °F (May 13, 4:52 pm)96% (May 16, 3:52 am)30.31 "Hg (May 16, 3:52 am)
Low35 °F (May 19, 3:52 am)18% (May 14, 6:52 pm)29.39 "Hg (May 24, 9:52 pm)
Average58 °F54%29.86 "Hg
* Reported May 13 3:52 pm — May 28 3:52 pm, Bismarck. Weather by CustomWeather, © 2017

Note: Actual official high and low records may vary slightly from our data, if they occured in-between our weather recording intervals... More about our weather records

Advertising

Bismarck Weather History for the Previous 24 Hours

Scroll right to see more
 ConditionsComfort  
Time TempWeatherWind HumidityBarometerVisibility
3:52 pm
Sun, May 28
73 °FScattered clouds.22 mph29%29.85 "Hg10 mi
2:52 pm70 °FPartly sunny.24 mph34%29.88 "Hg10 mi
2:22 pm66 °FCloudy.22 mph40%29.87 "Hg10 mi
1:52 pm75 °FPassing clouds.20 mph27%29.86 "Hg10 mi
12:52 pm73 °FPassing clouds.18 mph32%29.90 "Hg10 mi
11:52 am70 °FSunny.17 mph37%29.92 "Hg10 mi
10:52 am67 °FPartly sunny.15 mph42%29.93 "Hg10 mi
9:52 am65 °FSunny.14 mph47%29.94 "Hg10 mi
8:52 am61 °FSunny.15 mph52%29.92 "Hg10 mi
7:52 am55 °FSunny.9 mph62%29.92 "Hg10 mi
6:52 am51 °FSunny.9 mph71%29.91 "Hg10 mi
5:52 am47 °FClear.7 mph83%29.90 "Hg10 mi
4:52 am47 °FClear.8 mph83%29.88 "Hg10 mi
3:52 am46 °FClear.7 mph86%29.87 "Hg10 mi
2:52 am44 °FClear.No wind85%29.88 "Hg10 mi
1:52 am48 °FClear.No wind80%29.86 "Hg10 mi
12:52 am49 °FClear.No wind80%29.86 "Hg10 mi
11:52 pm
Sat, May 27
51 °FClear.No wind77%29.86 "Hg10 mi
10:52 pm54 °FClear.No wind72%29.86 "Hg10 mi
9:52 pm58 °FClear.3 mph60%29.85 "Hg10 mi
8:52 pm63 °FSunny.8 mph50%29.85 "Hg10 mi
7:52 pm66 °FSunny.7 mph45%29.84 "Hg10 mi
6:52 pm64 °FOvercast.24 mph50%29.85 "Hg10 mi
5:52 pm75 °FPartly sunny.20 mph24%29.78 "Hg10 mi
Weather by CustomWeather, © 2017

See weather overviewHow to use our weather pages